Location: Wildcat Hills Observatory
(41.6350°N, 103.6812°W)
Time: 00:55:55
(UTC-06:00)

Cosmos 1634 Rocket - Visible Passes

Search period start: 27 March 2015 00:00
Search period end: 06 April 2015 00:00
Orbit: 961 x 992 km, 82.9° (Epoch: 26 March)

Date Brightness Start Highest point End Pass type
(mag) Time Alt. Az. Time Alt. Az. Time Alt. Az.
27 Mar 6.2 00:19:18 10° NNW 00:21:09 19° NNW 00:21:09 19° NNW visible
27 Mar 5.5 22:59:14 10° N 23:02:07 28° N 23:02:07 28° N visible
28 Mar 6.5 00:45:46 10° NW 00:46:49 14° NW 00:46:49 14° NW visible
28 Mar 5.9 21:41:13 10° NNE 21:43:06 14° NE 21:43:06 14° NE visible
28 Mar 5.5 23:24:48 10° N 23:27:48 30° NNW 23:27:48 30° NNW visible
29 Mar 5.5 22:05:41 10° NNE 22:08:47 23° NE 22:08:47 23° NE visible
29 Mar 5.8 23:50:41 10° NNW 23:53:29 26° NW 23:53:29 26° NW visible
30 Mar 5.1 22:30:48 10° N 22:34:29 34° NNE 22:34:29 34° NNE visible
31 Mar 6.2 00:17:00 10° NNW 00:19:11 18° NW 00:19:11 18° NW visible
31 Mar 5.8 21:13:14 10° NE 21:15:30 13° ENE 21:15:30 13° ENE visible
31 Mar 5.0 22:56:17 10° N 23:00:12 41° N 23:00:12 41° N visible
01 Apr 6.5 00:44:24 10° NW 00:44:54 11° WNW 00:44:54 11° WNW visible
01 Apr 5.3 21:37:23 10° NNE 21:41:14 23° NE 21:41:14 23° NE visible
01 Apr 5.3 23:22:04 10° NNW 23:25:55 36° NW 23:25:55 36° NW visible
02 Apr 4.8 22:02:23 10° N 22:06:59 38° NE 22:06:59 38° NE visible
02 Apr 5.8 23:48:16 10° NNW 23:51:41 24° WNW 23:51:41 24° WNW visible
03 Apr 5.8 20:45:31 10° NE 20:47:21 12° ENE 20:48:03 11° ENE visible
03 Apr 4.3 22:27:46 10° N 22:32:45 57° NNE 22:32:45 57° NNE visible
04 Apr 6.3 00:15:14 10° NW 00:17:26 14° WNW 00:17:26 14° WNW visible
04 Apr 5.3 21:09:06 10° NNE 21:13:39 21° ENE 21:13:50 21° ENE visible
04 Apr 4.6 22:53:29 10° NNW 22:58:31 52° NW 22:58:31 52° NW visible
05 Apr 4.6 21:33:59 10° N 21:39:38 38° ENE 21:39:38 38° ENE visible
05 Apr 5.4 23:19:34 10° NNW 23:24:20 32° WNW 23:24:20 32° WNW visible
